カタログに戻る

FREGAT DEB

運用中UNKNOWN
NORAD 45979·DEBRIS·🇷🇺 Russia

打ち上げ Jul 18, 2011 から Baikonur Cosmodrome

Loading…

次のパス (今後24時間)

TLE

最新Source: Space-Track

元期: Sep 13, 2026, 14:58 UTC

1 45979U 11037GL  26256.62396195  .00000521  00000-0  10317-2 0  9990
2 45979  51.5257 359.6074 1894690 235.0668 105.7453 10.63296065238356

AllMySatでFREGAT DEBをリアルタイム追跡

Download on the App Store